Terug naar catalogus

COSMOS 1228

ActiefMilitairLEO
NORAD 12107·PAYLOAD·🇷🇺 Russia

Gelanceerd Dec 23, 1980 vanaf Plesetsk Cosmodrome

Loading…

Volgende Passages (komende 24 uur)

TLE

VersSource: Space-Track

Epoch: Sep 14, 2026, 04:01 UTC

1 12107U 80102A   26257.16752222  .00000010  00000-0  15747-3 0  9999
2 12107  73.9977 167.9407 0045634 204.7694 307.6172 12.58650396100814

Volg COSMOS 1228 in realtime met AllMySat

Download on the App Store